Welcome to the New NWS' Forecast!
Most changes are behind the scenes, but click here for differences you might notice.
Latest weather observations around

El Dorado, South Arkansas Regional at Goodwin Field Airport (KELD)

Using English Units (Switch to International System of Units)
Date/ Time (CST) Wind (mph) Vis. (mi) Weather Sky Cond. Temp (°F) Rel. Humidity Wind Chill (°F) Heat Index (°F) Pressure Precip. (in)
Air Dwpt 6 hour Altimeter (inHg) Sea level (inHg) 1 hr 3 hr 6 hr
Max Min
Nov 18 01:53 S 15 10 Mostly Clear FEW021 69 66     90%     29.76 29.75      
Nov 18 01:10 SSW 15 10 Partly Cloudy SCT023 70 66     87%     29.78        
Nov 18 00:53 S 13 10 Mostly Cloudy BKN023 70 67     90%     29.78 29.77      
Nov 17 23:53 S 14 10 Cloudy BKN021 OVC027 71 67     87%   72 29.79 29.78      
Nov 17 22:53 S 14 10 Cloudy OVC020 70 67     90%     29.8 29.79      
Nov 17 21:53 S 13 10 Mostly Cloudy BKN020 69 67     93%     29.81 29.8      
Nov 17 20:53 S 15 10 Clear CLR 70 66     87%     29.81 29.8      
Nov 17 19:53 S 14 10 Mostly Cloudy BKN050 71 66     84%   72 29.83 29.82      
Nov 17 18:53 S 8 10 Mostly Cloudy BKN050 70 66     87%     29.84 29.83      
Nov 17 17:53 SSE 8 10 Mostly Cloudy BKN055 70 67     90%     29.84 29.84      
Nov 17 16:53 SSE 8 10 Mostly Clear FEW040 FEW050 73 67     81%   74 29.85 29.83      
Nov 17 15:53 S 11 10 Mostly Clear FEW045 75 67     76%   76 29.87 29.86      
Nov 17 14:53 S 13 10 Partly Cloudy FEW024 SCT034 SCT041 74 66     76%   75 29.89 29.88      
Nov 17 14:46 S 15 10 Partly Cloudy SCT023 74 66     76%   75 29.89        
Nov 17 13:53 S 9 10 Cloudy OVC028 73 66     79%   74 29.92 29.91      
Nov 17 12:53 SSW 13 10 Cloudy OVC022 72 66     82%   73 29.95 29.95      
Nov 17 11:53 SSW 14 10 Mostly Cloudy BKN023 BKN028 74 65     74%   74 29.97 29.96      
Nov 17 10:53 S 10 10 Cloudy OVC018 71 64     79%   72 30.01 30.01      
Nov 17 10:15 S 10 10 Mostly Cloudy BKN017 70 63     78%     30.04        
Nov 17 09:53 S 8 10 Partly Cloudy SCT018 69 63     81%     30.04 30.03      
Nov 17 09:40 S 9 10 Mostly Cloudy BKN016 BKN021 68 62     81%     30.04        
Nov 17 08:53 SSE 10 10 Mostly Cloudy BKN095 64 61     90%     30.06 30.05      
Nov 17 07:53 SSE 8 10 Cloudy BKN055 OVC070 60 59     96%     30.07 30.06      
Nov 17 06:53 SE 7 10 Cloudy FEW060 OVC090 59 59     100%     30.06 30.06      
Nov 17 05:53 SE 3 9 Mostly Cloudy BKN085 58 58     100%     30.06 30.06      
Nov 17 04:53 SE 3 10 Cloudy FEW060 SCT080 OVC090 58 58     100%     30.07 30.06      
Nov 17 03:53 ESE 5 10 Cloudy SCT060 OVC090 58 58     100%     30.06 30.06      
Nov 17 02:53 SE 8 10 Cloudy OVC060 58 57     97%     30.08 30.07      
Nov 17 01:53 SE 5 10 Cloudy SCT060 OVC090 58 57     97%     30.07 30.06      
Nov 17 00:53 ESE 3 10 Cloudy BKN060 OVC080 58 57     97%     30.09 30.08      
Nov 16 23:53 ESE 8 10 Cloudy OVC080 58 56     93%     30.09 30.09      
Nov 16 22:53 E 5 10 Mostly Cloudy BKN080 58 57     97%     30.11 30.11      
Nov 16 21:53 E 6 10 Cloudy SCT045 BKN075 OVC085 58 57     97%     30.12 30.11      
Nov 16 20:53 E 6 10 Mostly Cloudy SCT065 BKN090 58 58     100%     30.12 30.11      
Nov 16 19:53 E 3 10 Cloudy SCT060 OVC090 59 59     100%     30.13 30.12      
Nov 16 18:53 ENE 3 10 Cloudy OVC060 59 58     96%     30.12 30.11      
Nov 16 17:53 ENE 6 10 Cloudy SCT019 OVC065 61 59     93%     30.11 30.1      
Nov 16 17:37 ENE 5 10 Cloudy BKN020 OVC065 60 58     93%     30.11        
Nov 16 17:22 NE 6 10 Cloudy SCT019 OVC065 61 59     93%     30.11        
Nov 16 16:53 NE 5 10 Cloudy OVC020 63 58     84%     30.11 30.1      
Nov 16 16:37 NNE 3 10 Cloudy BKN020 OVC060 63 58     84%     30.11        
Nov 16 15:53 ENE 6 10 Mostly Cloudy FEW020 BKN065 64 58     81%     30.11 30.1      
Nov 16 15:42 NE 8 10 Mostly Cloudy FEW020 BKN065 64 58     81%     30.11        
Nov 16 14:53 NE 8 10 Cloudy OVC019 64 58     81%     30.11 30.1      
Nov 16 13:53 ENE 10 10 Cloudy OVC018 64 58     81%     30.12 30.11      
Nov 16 12:53 NE 7 10 Cloudy OVC016 63 58     84%     30.14 30.13      
Nov 16 11:53 ENE 8 10 Cloudy OVC016 63 58     84%     30.16 30.16      
Nov 16 10:53 NE 8 10 Cloudy OVC015 63 58     84%     30.19 30.18      
Nov 16 10:25 NE 5 10 Cloudy BKN016 OVC037 63 58     84%     30.19        
Nov 16 10:09 ENE 7 10 Cloudy BKN014 OVC038 63 58     84%     30.19        
Nov 16 09:53 NE 8 10 Cloudy SCT013 OVC038 62 58     86%     30.19 30.18      
Nov 16 09:02 NE 9 10 Cloudy SCT011 OVC036 61 58     90%     30.19        
Nov 16 08:53 ENE 8 10 Cloudy BKN011 OVC036 61 59     93%     30.19 30.18      
Nov 16 08:38 NNE 6 10 Cloudy BKN010 OVC034 61 59     93%     30.18        
Nov 16 07:53 NE 7 10 Cloudy OVC034 60 59     96%     30.17 30.16      
Nov 16 06:53 NE 5 10 Cloudy OVC034 59 59     100%     30.15 30.14      
Nov 16 05:53 NE 5 10 Mostly Cloudy BKN034 BKN065 59 58     96%     30.13 30.12      
Nov 16 04:53 NE 5 10 Cloudy BKN031 OVC039 60 59     96%     30.13 30.12      
Nov 16 04:49 NE 6 10 Cloudy BKN031 OVC039 61 59     94%     30.13        
Nov 16 04:41 NE 5 10 Cloudy BKN029 OVC039 61 59     93%     30.13        
Nov 16 03:53 NNE 3 10 Cloudy SCT029 BKN034 OVC055 61 59     93%     30.13 30.12      
Nov 16 02:53 NNE 6 10 Cloudy OVC032 61 59     93%     30.13 30.12      
Nov 16 01:53 N 5 10 Cloudy OVC031 62 59     90%     30.12 30.11      
Nov 16 01:08 NNE 6 10 Cloudy OVC031 62 60     93%     30.12        
Nov 16 00:53 Calm 10 Cloudy BKN029 OVC034 62 60     93%     30.12 30.11      
Nov 15 23:53 NE 7 10 Cloudy OVC030 63 60     90%     30.12 30.11      
Nov 15 22:53 NNE 3 10 Cloudy OVC032 63 60     90%     30.11 30.1      
Nov 15 21:53 NE 3 10 Cloudy BKN036 OVC045 64 61     90%     30.1 30.09      
Nov 15 20:53 Calm 10 Cloudy OVC031 64 61     90%     30.09 30.09      
Nov 15 19:53 Calm 10 Cloudy OVC033 64 62     93%     30.08 30.08      
Nov 15 18:53 Calm 10 Cloudy OVC034 64 62     93%     30.07 30.06      
Nov 15 17:53 Calm 10 Cloudy OVC035 65 61     87%     30.06 30.06      
Nov 15 16:53 Calm 10 Clear CLR 66 60     81%     30.04 30.03      
Nov 15 15:53 SSW 7 10 Clear CLR 72 58     61%   72 30.03 30.03      
Nov 15 14:53 SW 6 10 Cloudy BKN065 OVC080 71 57     61%   71 30.03 30.02      
Nov 15 13:53 SSW 9 10 Cloudy OVC070 73 56     55%   73 30.04 30.03      
Nov 15 12:53 SSW 9 10 Mostly Cloudy FEW070 BKN085 69 55     61%     30.05 30.04      
Nov 15 11:53 SSW 11 10 Mostly Cloudy BKN100 65 54     68%     30.07 30.06      
Nov 15 10:53 SSW 5 10 Cloudy OVC075 59 54     83%     30.09 30.09      
Nov 15 09:53 SSE 5 10 Cloudy SCT075 OVC095 57 53     87%     30.09 30.09      
Nov 15 08:53 SSE 5 10 Cloudy OVC080 56 52     87%     30.09 30.09      
Nov 15 07:53 SSE 6 10 Cloudy OVC075 55 52     89%     30.06 30.06      
Nov 15 06:53 SE 5 10 Cloudy OVC080 55 51     86%     30.06 30.05      
Nov 15 05:53 SE 6 10 Cloudy OVC080 55 51     86%     30.04 30.03      
Nov 15 04:53 SE 6 10 Cloudy OVC085 55 50     83%     30.04 30.03      
Nov 15 03:53 SSE 7 10 Cloudy OVC085 55 50     83%     30.03 30.03      
Nov 15 02:53 SSE 7 10 Cloudy OVC085 55 49     80%     30.04 30.03      
Jun 08 23:53 Calm 10 Clear CLR 63 59     87%     29.95 29.93      
Jun 06 05:53 N 6 10 Cloudy OVC004 71 70     96%   72 29.78 29.76      
Jun 06 01:25 N 3 10 Cloudy SCT006 BKN011 OVC030 71 69     93%   72 29.78